Tracking 32412 objects as of 6-Dec-2025
HD Live streaming from Space Station
objects crossing your sky now

RSW-02

Track RSW-02 now!
10-day predictions


NORAD ID: 49114
Int'l Code: 2021-076C
Perigee: 1,092.7 km
Apogee: 1,118.9 km
Inclination: 86.4 °
Period: 107.2 minutes
Semi major axis: 7476 km
RCS: Unknown
Launch date: August 24, 2021
Source: People's Republic of China (PRC)
Launch site: Jiuquan Satellite Launch Center, China (JSC)
Your satellite tracking list
Your tracking list is empty




NASA's NSSDC Master Catalog

Two Line Element Set (TLE):
1 49114U 21076C   25339.98239110  .00000110  00000-0  16640-3 0  9992
2 49114  86.4098 226.7589 0017551 241.4766 118.4612 13.42858578209953
Source of the keplerian elements: AFSPC